Regional Weather Roundup
Issued by NWS

Home | Current Version | Previous Version | Graphics & Text | Print | Product List | Glossary Off
Versions: 1 2 3 4 5 6 7 8 9 10 11 12 13 14 15 16 17 18 19 20 21 22 23 24 25 26 27 28 29 30 31 32 33 34 35 36 37 38 39 40 41 42 43 44 45 46 47 48 49 50

000
ASUS43 KTOP 300059
RWRKS

WEATHER ROUNDUP FOR KANSAS
NATIONAL WEATHER SERVICE GOODLAND KS
800 PM CDT WED JUL 29 2015

NOTE:  "FAIR" INDICATES FEW OR NO CLOUDS BELOW 12,000 FEET WITH NO
SIGNIFICANT WEATHER AND/OR OBSTRUCTIONS TO VISIBILITY.

KSZ001>006-013>018-027>032-041>047-300200-
NORTHWEST KANSAS

CITY           SKY/WX    TMP DP  RH WIND       PRES   REMARKS
GOODLAND       SUNNY     77  45  32 SE10      30.24S
HAYS           PTCLDY    81  54  39 E15       30.18R
HILL CITY      CLEAR     80  53  39 SE10      30.19S
RUSSELL        PTCLDY    80  63  55 E14       30.16S
$$

KSZ061>065-074>080-084>089-300200-
SOUTHWEST KANSAS

CITY           SKY/WX    TMP DP  RH WIND       PRES   REMARKS
DODGE CITY     MOCLDY    76  64  66 E8        30.19R
ELKHART          N/A     79  65  62 E8          N/A
GARDEN CITY    PTCLDY    76  64  66 NE9       30.20R
GREAT BEND     PTCLDY    81  64  57 E9        30.16R
LIBERAL        MOCLDY    82  64  54 E16       30.17R
$$

KSZ066>073-081>083-090>101-300200-
SOUTHEAST KANSAS

CITY           SKY/WX    TMP DP  RH WIND       PRES   REMARKS
CHANUTE        MOCLDY    82  70  66 N8G18     30.11S
COFFEYVILLE    PTCLDY    84  71  65 NE12      30.07R
HUTCHINSON     PTCLDY    81  67  62 NE12      30.14R
MEDICINE LODGE   N/A     75  70  84 NE10      30.13R
PARSONS        PTCLDY    84  71  65 N7        30.10S
WICHITA INTL   CLOUDY    78  72  81 NE8       30.12R
WICHITA JABRA  CLOUDY    78  70  76 N10       30.13R
WINFIELD       MOCLDY    76  72  87 NE3       30.11R
$$

KSZ007>012-019>026-033>040-048>060-102>105-300200-
NORTHEAST KANSAS

CITY           SKY/WX    TMP DP  RH WIND       PRES   REMARKS
CONCORDIA      CLEAR     78  63  59 E3        30.18R
EMPORIA        CLOUDY    79  69  71 NE10      30.13F
LAWRENCE       PTCLDY    80  69  69 CALM      30.14R
MANHATTAN      PTCLDY    80  64  58 E7        30.15R
OLATHE IND     PTCLDY    78  68  71 N8        30.15R
OLATHE EXE     CLEAR     81  65  58 N7        30.14R
SALINA         PTCLDY    82  66  58 NE9       30.14S
TOPEKA BILLARD CLEAR     80  69  69 NE5       30.14S
TOPEKA FORBES  CLEAR     81  67  62 NE3       30.14F
$$


USA.gov is the U.S. government's official web portal to all federal, state and local government web resources and services.